Weather History for PAFM - November, 2013

Change the Weather History Date:

Thursday, November 14, 2013

  Actual Average (WUND) Record (WUND)
Temperature  
Mean Temperature 19 °F -  
Max Temperature 32 °F - - (-1)
Min Temperature 5 °F - - (-1)
Degree Days  
Heating Degree Days 46    
Moisture  
Dew Point 16 °F    
Average Humidity 83    
Maximum Humidity 93    
Minimum Humidity 72    
Precipitation  
Precipitation 0.00 in - - ()
Sea Level Pressure  
Sea Level Pressure 29.81 in    
Wind  
Wind Speed 10 mph (WNW)    
Max Wind Speed 17 mph    
Max Gust Speed 28 mph    
Visibility 10 miles    
Events      
Averages and records for this station are not official NWS values.
T = Trace of Precipitation, MM = Missing Value Source: NWS Daily Summary

Daily Weather History Graph

Daily Weather History Graph

Search for Another Location

Airport or City:

Trip Planner

Search our weather history database for the weather conditions in past years. The results will help you decide how hot, cold, wet, or windy it might be!

Date:

Astronomy

Nov. 14, 2013 Rise Set
Actual Time 10:29 AM AKST 4:00 PM AKST
Civil Twilight 9:17 AM AKST 5:13 PM AKST
Nautical Twilight 8:07 AM AKST 6:23 PM AKST
Astronomical Twilight 7:04 AM AKST 7:26 PM AKST
Moon 3:38 PM AKST (11/14) 6:18 AM AKST (11/14)
Length of Visible Light 7h 56m
Length of Day
5h 30m
Waxing Gibbous, 92% of the Moon is Illuminated
Nov 14
Waxing Gibbous
Nov 17
Full
Nov 25
Last Quarter
Dec 2
New
Dec 9
First Quarter

Hourly Weather History & Observations

Time (AKST) Temp. Windchill Dew Point Humidity Pressure Visibility Wind Dir Wind Speed Gust Speed Precip Events Conditions
12:16 AM 32.0 °F 20.8 °F 28.4 °F 87% 29.24 in 8.0 mi SW 17.3 mph 27.6 mph N/A   Overcast
12:36 AM 30.2 °F 20.8 °F 28.4 °F 93% 29.26 in 2.5 mi WSW 11.5 mph 27.6 mph N/A   Overcast
12:56 AM 30.2 °F 20.2 °F 28.4 °F 93% 29.28 in 1.8 mi West 12.7 mph 23.0 mph N/A   Overcast
1:16 AM 30.2 °F 20.2 °F 28.4 °F 93% 29.30 in 6.0 mi West 12.7 mph 23.0 mph N/A   Overcast
1:36 AM 30.2 °F 19.3 °F 28.4 °F 93% 29.33 in 10.0 mi West 15.0 mph 23.0 mph N/A   Overcast
1:56 AM 30.2 °F 19.8 °F 28.4 °F 93% 29.36 in 10.0 mi West 13.8 mph 26.5 mph N/A   Overcast
2:16 AM 30.2 °F 20.8 °F 28.4 °F 93% 29.39 in 10.0 mi West 11.5 mph 23.0 mph N/A   Overcast
2:36 AM 30.2 °F 19.3 °F 28.4 °F 93% 29.42 in 8.0 mi WNW 15.0 mph 21.9 mph N/A   Mostly Cloudy
2:56 AM 30.2 °F 21.9 °F 28.4 °F 93% 29.46 in 10.0 mi West 9.2 mph 18.4 mph N/A   Overcast
3:16 AM 30.2 °F 21.3 °F 28.4 °F 93% 29.49 in 10.0 mi West 10.4 mph - N/A   Overcast
3:36 AM 30.2 °F 21.9 °F 26.6 °F 86% 29.51 in 10.0 mi West 9.2 mph - N/A   Overcast
3:56 AM 30.2 °F 20.8 °F 26.6 °F 86% 29.54 in 8.0 mi West 11.5 mph 18.4 mph N/A   Mostly Cloudy
4:16 AM 28.4 °F 21.2 °F 26.6 °F 93% 29.56 in 10.0 mi West 6.9 mph - N/A   Mostly Cloudy
4:36 AM 28.4 °F 17.5 °F 24.8 °F 86% 29.57 in 10.0 mi WNW 13.8 mph 18.4 mph N/A   Partly Cloudy
4:56 AM 28.4 °F 20.4 °F 24.8 °F 86% 29.58 in 10.0 mi WNW 8.1 mph - N/A   Clear
5:16 AM 26.6 °F 17.5 °F 24.8 °F 93% 29.59 in 10.0 mi West 9.2 mph 17.3 mph N/A   Clear
5:36 AM 26.6 °F 16.2 °F 23.0 °F 86% 29.60 in 10.0 mi WNW 11.5 mph 17.3 mph N/A   Clear
5:56 AM 26.6 °F 15.7 °F 21.2 °F 80% 29.61 in 10.0 mi WNW 12.7 mph 16.1 mph N/A   Clear
6:16 AM 24.8 °F 15.3 °F 21.2 °F 86% 29.63 in 10.0 mi WNW 9.2 mph 17.3 mph N/A   Clear
6:36 AM 24.8 °F 16.1 °F 19.4 °F 80% 29.64 in 10.0 mi WNW 8.1 mph - N/A   Clear
6:56 AM 24.8 °F 15.3 °F 19.4 °F 80% 29.66 in 10.0 mi West 9.2 mph - N/A   Clear
7:16 AM 24.8 °F 15.3 °F 19.4 °F 80% 29.67 in 10.0 mi West 9.2 mph - N/A   Clear
7:36 AM 24.8 °F 15.3 °F 17.6 °F 74% 29.68 in 10.0 mi WNW 9.2 mph 17.3 mph N/A   Clear
7:56 AM 24.8 °F 15.3 °F 17.6 °F 74% 29.69 in 10.0 mi West 9.2 mph - N/A   Clear
8:16 AM 23.0 °F 12.4 °F 17.6 °F 80% 29.71 in 10.0 mi West 10.4 mph 16.1 mph N/A   Clear
8:36 AM 23.0 °F 10.6 °F 17.6 °F 80% 29.73 in 10.0 mi WNW 13.8 mph 19.6 mph N/A   Partly Cloudy
8:56 AM 23.0 °F 12.4 °F 17.6 °F 80% 29.75 in 10.0 mi WNW 10.4 mph 17.3 mph N/A   Partly Cloudy
9:16 AM 23.0 °F 10.6 °F 17.6 °F 80% 29.76 in 10.0 mi WNW 13.8 mph 19.6 mph N/A   Scattered Clouds
9:36 AM 21.2 °F 11.7 °F 17.6 °F 86% 29.78 in 10.0 mi West 8.1 mph 16.1 mph N/A   Partly Cloudy
9:56 AM 21.2 °F 11.7 °F 15.8 °F 80% 29.79 in 10.0 mi West 8.1 mph - N/A   Clear
10:16 AM 21.2 °F 11.7 °F 15.8 °F 80% 29.80 in 10.0 mi West 8.1 mph - N/A   Clear
10:36 AM 21.2 °F 12.6 °F 15.8 °F 80% 29.82 in 10.0 mi West 6.9 mph - N/A   Clear
10:56 AM 21.2 °F 13.6 °F 15.8 °F 80% 29.82 in 10.0 mi West 5.8 mph - N/A   Clear
11:16 AM 19.4 °F 11.5 °F 15.8 °F 86% 29.84 in 10.0 mi West 5.8 mph - N/A   Clear
11:36 AM 19.4 °F 10.4 °F 14.0 °F 80% 29.86 in 10.0 mi West 6.9 mph - N/A   Clear
11:56 AM 19.4 °F 8.6 °F 14.0 °F 80% 29.85 in 10.0 mi WNW 9.2 mph - N/A   Clear
12:16 PM 19.4 °F 7.9 °F 14.0 °F 80% 29.87 in 10.0 mi WNW 10.4 mph - N/A   Clear
12:36 PM 19.4 °F 7.9 °F 14.0 °F 80% 29.87 in 10.0 mi WNW 10.4 mph 17.3 mph N/A   Clear
12:56 PM 19.4 °F 8.6 °F 14.0 °F 80% 29.89 in 10.0 mi West 9.2 mph - N/A   Clear
1:16 PM 19.4 °F 8.6 °F 14.0 °F 80% 29.90 in 10.0 mi West 9.2 mph - N/A   Scattered Clouds
1:36 PM 19.4 °F 9.5 °F 12.2 °F 74% 29.92 in 10.0 mi West 8.1 mph - N/A   Partly Cloudy
1:56 PM 17.6 °F 7.3 °F 12.2 °F 79% 29.93 in 10.0 mi WNW 8.1 mph - N/A   Clear
2:16 PM 17.6 °F 8.2 °F 12.2 °F 79% 29.94 in 10.0 mi WNW 6.9 mph - N/A   Clear
2:36 PM 17.6 °F 7.3 °F 12.2 °F 79% 29.94 in 10.0 mi WNW 8.1 mph - N/A   Clear
2:56 PM 17.6 °F 6.4 °F 12.2 °F 79% 29.96 in 10.0 mi WNW 9.2 mph - N/A   Clear
3:16 PM 17.6 °F 7.3 °F 12.2 °F 79% 29.98 in 10.0 mi WNW 8.1 mph - N/A   Clear
3:36 PM 17.6 °F 6.4 °F 12.2 °F 79% 29.98 in 10.0 mi WNW 9.2 mph - N/A   Clear
3:56 PM 17.6 °F 5.0 °F 12.2 °F 79% 30.00 in 10.0 mi WNW 11.5 mph - N/A   Clear
4:16 PM 17.6 °F 4.3 °F 12.2 °F 79% 30.00 in 10.0 mi WNW 12.7 mph - N/A   Clear
4:36 PM 17.6 °F 6.4 °F 12.2 °F 79% 30.01 in 10.0 mi WNW 9.2 mph - N/A   Clear
4:56 PM 15.8 °F 3.4 °F 12.2 °F 86% 30.02 in 10.0 mi WNW 10.4 mph - N/A   Clear
5:16 PM 15.8 °F 3.4 °F 12.2 °F 86% 30.03 in 10.0 mi WNW 10.4 mph - N/A   Clear
5:36 PM 17.6 °F 6.4 °F 12.2 °F 79% 30.03 in 10.0 mi WNW 9.2 mph - N/A   Clear
5:56 PM 15.8 °F 5.1 °F 12.2 °F 86% 30.05 in 10.0 mi WNW 8.1 mph - N/A   Partly Cloudy
6:16 PM 15.8 °F 5.1 °F 12.2 °F 86% 30.06 in 10.0 mi West 8.1 mph - N/A   Mostly Cloudy
6:36 PM 15.8 °F 5.1 °F 10.4 °F 79% 30.06 in 10.0 mi WNW 8.1 mph - N/A   Overcast
6:56 PM 15.8 °F 6.1 °F 12.2 °F 86% 30.06 in 10.0 mi West 6.9 mph - N/A   Overcast
7:16 PM 15.8 °F 6.1 °F 12.2 °F 86% 30.06 in 10.0 mi WNW 6.9 mph - N/A   Overcast
7:36 PM 15.8 °F 7.2 °F 10.4 °F 79% 30.07 in 10.0 mi WNW 5.8 mph - N/A   Scattered Clouds
7:56 PM 15.8 °F - 10.4 °F 79% 30.08 in 10.0 mi Calm Calm - N/A   Clear
8:16 PM 14.0 °F - 10.4 °F 86% 30.08 in 10.0 mi Calm Calm - N/A   Clear
8:36 PM 10.4 °F - 5.0 °F 79% 30.08 in 10.0 mi Calm Calm - N/A   Clear
8:56 PM 12.2 °F 6.1 °F 8.6 °F 85% 30.08 in 10.0 mi NNE 3.5 mph - N/A   Clear
9:16 PM 12.2 °F - 8.6 °F 85% 30.09 in 10.0 mi Calm Calm - N/A   Clear
9:56 PM 10.4 °F 2.2 °F 3.2 °F 73% 30.08 in 10.0 mi NW 4.6 mph - N/A   Clear
10:16 PM 8.6 °F - 3.2 °F 79% 30.09 in 10.0 mi Calm Calm - N/A   Clear
10:36 PM 10.4 °F 4.0 °F 8.6 °F 92% 30.10 in 10.0 mi NNE 3.5 mph - N/A   Clear
10:56 PM 12.2 °F 6.1 °F 8.6 °F 85% 30.10 in 10.0 mi North 3.5 mph - N/A   Clear
11:16 PM 6.8 °F - 1.4 °F 79% 30.11 in 10.0 mi Calm Calm - N/A   Clear
11:36 PM 6.8 °F - 1.4 °F 79% 30.12 in 10.0 mi Calm Calm - N/A   Clear
11:56 PM 5.0 °F - -2.2 °F 72% 30.13 in 10.0 mi Calm Calm - N/A   Clear